Location: Clanezzo
(45.7500°N, 9.6000°E)
Time: 04:25:24
(UTC+00:00)

Cosmos 372 Rocket - Pass Details

Date: 12 May 2021
Orbit: 738 x 768 km, 74.1° (Epoch: 18 June)

Event Time Altitude Azimuth Distance (km) Brightness Sun altitude
Exits shadow 22:25:43 77° 178° (S) 761 3.7 -24.8°
Maximum altitude 22:26:04 85° 110° (ESE) 747 3.8 -24.8°
Drops below altitude 10° 22:31:11 10° 22° (NNE) 2,256 7.1 -25.0°
Sets 22:33:32 0° 22° (NNE) 3,184 8.1 -25.1°
